Volver al catálogo

STARLINK-33968

ActivoComunicacionesVLEO
NORAD 63883·PAYLOAD·🇺🇸 United States

Lanzado May 10, 2025 desde Vandenberg Space Force Base

Loading…

Próximos Pases (próximas 24 horas)

TLE

ActualizadoSource: CelesTrak SupGP

Época: Sep 14, 2026, 21:16 UTC

1 63883C 25094V   26257.88659722 -.00014739  00000+0 -49976-3 0  2577
2 63883  69.9989 115.8746 0003244 271.8546  27.4590 15.30418144    17

Sigue STARLINK-33968 en tiempo real con AllMySat

Download on the App Store